Location: Frydek-Mistek
(49.6830°N, 18.3330°E)
Time: 05:02:41
(UTC+01:00)

Courier 1B Rocket - All Passes

Search period start: 27 February 2015 00:00
Search period end: 09 March 2015 00:00
Orbit: 921 x 1202 km, 28.2° (Epoch: 22 February)

Date Brightness Start Highest point End Pass type
(mag) Time Alt. Az. Time Alt. Az. Time Alt. Az.
27 Feb - 01:48:14 10° SSW 01:51:22 13° S 01:54:24 10° SSE night (unlit)
27 Feb - 22:57:45 10° S 22:58:30 10° SSE 22:59:25 10° SSE night (unlit)
28 Feb - 00:47:14 10° SSW 00:50:41 14° S 00:54:06 10° SSE night (unlit)
28 Feb - 23:46:37 10° SSW 23:49:59 13° S 23:53:22 10° SSE night (unlit)
01 Mar - 01:39:25 10° SSW 01:42:11 12° S 01:44:48 10° S night (unlit)
01 Mar - 22:46:30 10° S 22:49:17 12° S 22:52:10 10° SSE night (unlit)
02 Mar - 00:38:02 10° SSW 00:41:30 13° S 00:44:53 10° SSE night (unlit)
02 Mar - 21:47:28 10° S 21:48:35 10° SSE 21:49:53 10° SSE night (unlit)
02 Mar - 23:37:08 10° SSW 23:40:47 14° S 23:44:26 10° SSE night (unlit)
03 Mar - 01:31:32 10° SSW 01:32:58 10° SSW 01:34:15 10° S night (unlit)
03 Mar - 22:36:37 10° SSW 22:40:04 14° S 22:43:35 10° SSE night (unlit)
04 Mar - 00:29:17 10° SSW 00:32:18 12° S 00:35:11 10° SSE night (unlit)
04 Mar - 21:36:36 10° S 21:39:22 12° S 21:42:15 10° SSE night (unlit)
04 Mar - 23:28:02 10° SSW 23:31:35 14° S 23:35:06 10° SSE night (unlit)
05 Mar - 20:37:55 10° S 20:38:41 10° SSE 20:39:38 10° SSE visible
05 Mar - 22:27:14 10° SSW 22:30:52 14° S 22:34:31 10° SSE night (unlit)
06 Mar - 00:21:24 10° SSW 00:23:04 11° SSW 00:24:34 10° S night (unlit)
06 Mar - 21:26:51 10° SSW 21:30:10 13° S 21:33:34 10° SSE visible
06 Mar - 23:19:24 10° SSW 23:22:23 12° S 23:25:16 10° SSE night (unlit)
07 Mar - 20:27:01 10° S 20:29:29 12° S 20:32:05 10° SSE visible
07 Mar - 22:18:16 10° SSW 22:21:40 13° S 22:25:04 10° SSE night (unlit)
08 Mar - 21:17:35 10° SSW 21:20:58 13° S 21:24:25 10° SSE visible
08 Mar - 23:11:49 10° SSW 23:13:09 10° SSW 23:14:21 10° S night (unlit)
